Date String (YYYY-MM-DD hh:mm:ss) UTC,Instrument flags,Ambient pressure (hPa),Sample flow (lpm),Bypass flow (lpm),Sample temperature (°C),Ambient temperature (°C),ASC tube jacket temperature (°C),LED temperature (°C),Box temperature (°C),Sample RH (%),Span deviation,Mass concentration (μg/m³),Mass concentration (μg/m³),Mass concentration (μg/m³)
DateTimeUTC,F1_M11,P_M11,Q1_M11,Q2_M11,T1_M11,T2_M11,T3_M11,T4_M11,T5_M11,U1_M11,ZSPAN_M11,X0_M11,X2_M11,X1_M11
2023-05-03 08:00:00,,0828.7,5.00,0.00,29.1,27.4,00.0,37.5,30.5,16.5,0000.0,0010.17,0005.04,0003.64
2023-05-03 08:01:00,,0828.6,5.00,0.00,29.1,27.4,00.0,37.5,30.5,16.5,0000.0,0009.74,0004.99,0003.63
2023-05-03 08:02:00,,0828.7,4.99,0.00,29.1,27.4,00.0,37.5,30.5,16.5,0000.0,0009.79,0004.97,0003.63
2023-05-03 08:03:00,,0828.6,5.01,0.00,29.1,27.4,00.0,37.5,30.5,16.5,0000.0,0009.67,0004.92,0003.62
2023-05-03 08:04:00,,0828.6,5.01,0.00,29.1,27.4,00.0,37.5,30.5,16.5,0000.0,0009.52,0004.86,0003.62
2023-05-03 08:05:00,,0828.6,5.00,0.00,29.1,27.4,00.0,37.5,30.5,16.5,0000.0,0009.48,0004.85,0003.62
2023-05-03 08:06:00,,0828.7,4.99,0.00,29.1,27.4,00.0,37.5,30.5,16.5,0000.0,0009.55,0004.82,0003.61
2023-05-03 08:07:00,,0828.7,5.00,0.00,29.1,27.4,00.0,37.5,30.5,16.5,0000.0,0010.02,0004.85,0003.62
2023-05-03 08:08:00,,0828.7,5.01,0.00,29.1,27.4,00.0,37.5,30.5,16.5,0000.0,0010.42,0004.83,0003.63
2023-05-03 08:09:00,,0828.7,5.00,0.00,29.1,27.4,00.0,37.5,30.5,16.5,0000.0,0010.89,0004.83,0003.63
2023-05-03 08:10:00,,0828.7,5.00,0.00,29.1,27.4,00.0,37.5,30.5,16.6,0000.0,0011.14,0004.86,0003.62
2023-05-03 08:11:00,,0828.7,5.01,0.00,29.1,27.4,00.0,37.5,30.5,16.6,0000.0,0011.08,0004.84,0003.63
2023-05-03 08:12:00,,0828.7,5.00,0.00,29.1,27.4,00.0,37.5,30.5,16.7,0000.0,0011.07,0004.87,0003.64
2023-05-03 08:13:00,,0828.7,5.00,0.00,29.1,27.4,00.0,37.5,30.4,16.8,0000.0,0011.07,0004.92,0003.64
2023-05-03 08:14:00,,0828.7,4.99,0.00,29.1,27.3,00.0,37.5,30.4,16.7,0000.0,0011.15,0004.96,0003.66
2023-05-03 08:15:00,,0828.7,5.01,0.00,29.1,27.3,00.0,37.5,30.5,16.7,0000.0,0011.12,0004.98,0003.68
2023-05-03 08:16:00,,0828.7,5.00,0.00,29.1,27.3,00.0,37.5,30.5,16.7,0000.0,0011.03,0004.95,0003.68
2023-05-03 08:17:00,,0828.7,4.99,0.00,29.1,27.3,00.0,37.5,30.4,16.6,0000.0,0011.02,0004.97,0003.70
2023-05-03 08:18:00,,0828.7,5.00,0.00,29.1,27.3,00.0,37.5,30.4,16.6,0000.0,0010.92,0004.97,0003.71
2023-05-03 08:19:00,,0828.7,5.00,0.00,29.1,27.3,00.0,37.5,30.5,16.6,0000.0,0010.83,0004.98,0003.74
2023-05-03 08:20:00,,0828.6,5.01,0.00,29.1,27.3,00.0,37.5,30.5,16.6,0000.0,0010.46,0005.02,0003.75
2023-05-03 08:21:00,,0828.6,5.00,0.00,29.1,27.3,00.0,37.5,30.4,16.6,0000.0,0010.79,0005.01,0003.76
2023-05-03 08:22:00,,0828.6,4.99,0.00,29.1,27.3,00.0,37.5,30.4,16.6,0000.0,0010.97,0005.02,0003.76
2023-05-03 08:23:00,,0828.6,5.01,0.00,29.1,27.3,00.0,37.5,30.5,16.6,0000.0,0011.13,0005.06,0003.76
2023-05-03 08:24:00,,0828.6,5.01,0.00,29.1,27.4,00.0,37.5,30.5,16.6,0000.0,0011.20,0005.05,0003.76
2023-05-03 08:25:00,,0828.6,5.00,0.00,29.0,27.4,00.0,37.5,30.4,16.6,0000.0,0011.23,0005.07,0003.77
2023-05-03 08:26:00,,0828.6,4.98,0.00,29.1,27.4,00.0,37.5,30.5,16.6,0000.0,0011.61,0005.10,0003.76
2023-05-03 08:27:00,,0828.6,5.01,0.00,29.1,27.4,00.0,37.5,30.5,16.6,0000.0,0012.03,0005.11,0003.74
2023-05-03 08:28:00,,0828.6,5.00,0.00,29.1,27.4,00.0,37.4,30.4,16.6,0000.0,0012.19,0005.13,0003.74
2023-05-03 08:29:00,,0828.6,4.99,0.00,29.0,27.4,00.0,37.4,30.4,16.6,0000.0,0011.88,0005.15,0003.75
2023-05-03 08:30:00,,0828.6,4.99,0.00,29.0,27.4,00.0,37.4,30.4,16.6,0000.0,0011.48,0005.13,0003.73
2023-05-03 08:31:00,,0828.6,5.01,0.00,29.0,27.3,00.0,37.4,30.5,16.6,0000.0,0011.30,0005.07,0003.73
2023-05-03 08:32:00,,0828.6,5.00,0.00,29.0,27.3,00.0,37.4,30.5,16.6,0000.0,0010.80,0005.06,0003.74
2023-05-03 08:33:00,,0828.6,5.00,0.00,29.0,27.3,00.0,37.4,30.5,16.6,0000.0,0010.68,0005.10,0003.74
2023-05-03 08:34:00,,0828.6,4.99,0.00,29.0,27.3,00.0,37.4,30.4,16.7,0000.0,0010.53,0005.07,0003.75
2023-05-03 08:35:00,,0828.6,5.01,0.00,29.0,27.3,00.0,37.4,30.4,16.6,0000.0,0010.56,0005.09,0003.76
2023-05-03 08:36:00,,0828.5,5.01,0.00,29.0,27.3,00.0,37.4,30.4,16.6,0000.0,0010.62,0005.11,0003.76
2023-05-03 08:37:00,,0828.5,5.01,0.00,29.0,27.3,00.0,37.4,30.4,16.6,0000.0,0010.23,0005.07,0003.76
2023-05-03 08:38:00,,0828.5,4.98,0.00,29.0,27.3,00.0,37.4,30.4,16.6,0000.0,0009.92,0005.09,0003.77
2023-05-03 08:39:00,,0828.5,5.00,0.00,29.0,27.3,00.0,37.4,30.4,16.6,0000.0,0009.70,0005.09,0003.77
2023-05-03 08:40:00,,0828.5,5.01,0.00,29.0,27.3,00.0,37.4,30.4,16.6,0000.0,0009.65,0005.10,0003.77
2023-05-03 08:41:00,,0828.4,4.99,0.00,29.0,27.3,00.0,37.4,30.4,16.6,0000.0,0009.87,0005.15,0003.77
2023-05-03 08:42:00,,0828.4,5.00,0.00,29.0,27.3,00.0,37.4,30.4,16.6,0000.0,0010.13,0005.24,0003.77
2023-05-03 08:43:00,,0828.5,5.01,0.00,29.0,27.4,00.0,37.4,30.4,16.6,0000.0,0010.13,0005.24,0003.78
2023-05-03 08:44:00,,0828.4,5.01,0.00,29.0,27.4,00.0,37.4,30.4,16.6,0000.0,0010.12,0005.20,0003.76
2023-05-03 08:45:00,,0828.4,5.00,0.00,29.0,27.4,00.0,37.4,30.4,16.6,0000.0,0010.13,0005.18,0003.75
2023-05-03 08:46:00,,0828.4,4.99,0.00,29.0,27.4,00.0,37.4,30.5,16.6,0000.0,0010.08,0005.16,0003.74
2023-05-03 08:47:00,,0828.4,5.00,0.00,29.0,27.4,00.0,37.4,30.5,16.6,0000.0,0009.90,0005.08,0003.73
2023-05-03 08:48:00,,0828.4,5.01,0.00,29.0,27.3,00.0,37.4,30.5,16.6,0000.0,0009.90,0005.04,0003.71
2023-05-03 08:49:00,,0828.4,5.00,0.00,29.0,27.3,00.0,37.4,30.5,16.6,0000.0,0009.81,0005.05,0003.70
2023-05-03 08:50:00,,0828.4,5.00,0.00,29.0,27.3,00.0,37.4,30.5,16.6,0000.0,0009.95,0005.09,0003.70
2023-05-03 08:51:00,,0828.4,4.99,0.00,29.0,27.3,00.0,37.4,30.4,16.6,0000.0,0010.11,0005.11,0003.69
2023-05-03 08:52:00,,0828.4,5.00,0.00,29.0,27.2,00.0,37.4,30.4,16.6,0000.0,0010.07,0005.10,0003.69
2023-05-03 08:53:00,,0828.4,5.01,0.00,29.0,27.2,00.0,37.4,30.4,16.7,0000.0,0010.06,0005.05,0003.67
2023-05-03 08:54:00,,0828.4,4.99,0.00,29.0,27.2,00.0,37.4,30.3,16.7,0000.0,0010.06,0005.04,0003.66
2023-05-03 08:55:00,,0828.4,5.00,0.00,28.9,27.2,00.0,37.4,30.3,16.7,0000.0,0010.11,0005.06,0003.67
2023-05-03 08:56:00,,0828.4,5.00,0.00,28.9,27.1,00.0,37.3,30.3,16.7,0000.0,0010.19,0005.07,0003.67
2023-05-03 08:57:00,,0828.4,5.00,0.00,28.9,27.1,00.0,37.3,30.3,16.7,0000.0,0010.48,0005.06,0003.67
2023-05-03 08:58:00,,0828.4,5.00,0.00,28.9,27.1,00.0,37.3,30.2,16.7,0000.0,0011.05,0005.08,0003.67
2023-05-03 08:59:00,,0828.4,5.00,0.00,28.9,27.1,00.0,37.3,30.3,16.7,0000.0,0011.22,0005.13,0003.68
